User: anonymous   Login
Location: Hurstbourne Priors
(51.2000°N, 1.3667°W)
Time: 16:33:18
(UTC+00:00)
Language:

Transit 4A - Orbit

View from above orbital plane
View from above orbital plane
View from above satellite
View from above satellite

Ground track
Ground track

The orbit data is extracted from the following two-line orbital elements,

1 00116U 61015A   21100.68840715 -.00000050  00000-0  20627-4 0  9991
2 00116  66.8102 201.5738 0073478 165.6621 194.6567 13.91787334 33173
Epoch (UTC): 10 April 2021 16:31:18
Eccentricity: 0.0073478
inclination: 66.8102°
perigee height: 869 km
apogee height: 976 km
right ascension of ascending node: 201.5738°
argument of perigee: 165.6621°
revolutions per day: 13.91787334
mean anomaly at epoch: 194.6567°
orbit number at epoch: 3317

The dashed part of the orbit path shows where the satellite is in the earth's shadow,  

DLR